| time (UTC) | temp F | wind direction | speed knots | gust knots | rain 1hr in | rain 24hr in | rain mn in | humidity % | barometer mb |
| 20260505153039 | 38 | 338 | 10.4 | 15.6 | 0.00 | 0.00 | 0.00 | 58 | 1019.7 |
| 20260505151532 | 38 | 23 | 11.3 | 17.4 | 0.00 | 0.00 | 0.00 | 58 | 1019.9 |
| 20260505124530 | 33 | 346 | 8.7 | 10.4 | 0.00 | 0.00 | 0.00 | 69 | 1019.0 |
| 20260505123045 | 33 | 351 | 8.7 | 12.2 | 0.00 | 0.00 | 0.00 | 69 | 1018.7 |
| 20260505121532 | 32 | 336 | 7.0 | 11.3 | 0.00 | 0.00 | 0.00 | 69 | 1018.8 |
| 20260505120039 | 32 | 347 | 9.6 | 13.0 | 0.00 | 0.00 | 0.00 | 68 | 1018.7 |
| 20260505114532 | 32 | 344 | 9.6 | 12.2 | 0.00 | 0.00 | 0.00 | 67 | 1018.5 |
| 20260505113032 | 32 | 5 | 8.7 | 12.2 | 0.00 | 0.00 | 0.00 | 64 | 1018.5 |
| 20260505111535 | 32 | 5 | 8.7 | 11.3 | 0.00 | 0.00 | 0.00 | 64 | 1018.3 |
| 20260505101532 | 34 | 5 | 7.8 | 10.4 | 0.00 | 0.00 | 0.00 | 62 | 1018.4 |
| 20260505100034 | 35 | 5 | 8.7 | 12.2 | 0.00 | 0.00 | 0.00 | 60 | 1018.3 |
| 20260505094532 | 35 | 5 | 8.7 | 11.3 | 0.00 | 0.00 | 0.00 | 61 | 1018.2 |
| 20260505093031 | 35 | 360 | 7.8 | 9.6 | 0.00 | 0.00 | 0.00 | 60 | 1018.1 |
| 20260505091530 | 35 | 5 | 6.1 | 7.8 | 0.00 | 0.00 | 0.00 | 59 | 1018.1 |
| 20260505090030 | 35 | 13 | 5.2 | 7.8 | 0.00 | 0.00 | 0.00 | 60 | 1018.2 |
| 20260505084536 | 35 | 5 | 6.1 | 7.8 | 0.00 | 0.00 | 0.00 | 59 | 1018.0 |
| 20260505083031 | 36 | 355 | 6.1 | 7.8 | 0.00 | 0.00 | 0.00 | 58 | 1018.1 |
| 20260505081531 | 37 | 342 | 6.1 | 8.7 | 0.00 | 0.00 | 0.00 | 57 | 1018.1 |
| 20260505080031 | 37 | 344 | 3.5 | 5.2 | 0.00 | 0.00 | 0.00 | 57 | 1018.0 |
| 20260505074534 | 37 | 313 | 2.6 | 4.3 | 0.00 | 0.00 | 0.00 | 57 | 1017.9 |
| 20260505073032 | 37 | 311 | 2.6 | 4.3 | 0.00 | 0.00 | 0.00 | 55 | 1018.0 |
| 20260505071530 | 38 | 5 | 2.6 | 4.3 | 0.00 | 0.00 | 0.00 | 55 | 1017.8 |
| 20260505070032 | 37 | 0 | 0.0 | 2.6 | 0.00 | 0.00 | 0.00 | 55 | 1017.8 |
| 20260505064533 | 37 | 343 | 1.7 | 5.2 | 0.00 | 0.00 | 0.00 | 55 | 1018.1 |
| 20260505063032 | 37 | 309 | 2.6 | 5.2 | 0.00 | 0.00 | 0.00 | 55 | 1017.9 |
| 20260505061530 | 37 | 279 | 3.5 | 7.0 | 0.00 | 0.00 | 0.00 | 55 | 1017.6 |
| 20260505060032 | 36 | 309 | 1.7 | 5.2 | 0.00 | 0.00 | 0.00 | 55 | 1017.9 |
| 20260505054544 | 37 | 331 | 1.7 | 7.0 | 0.00 | 0.00 | 0.00 | 55 | 1017.9 |
| 20260505053030 | 36 | 11 | 2.6 | 4.3 | 0.00 | 0.00 | 0.00 | 56 | 1017.6 |
| 20260505051532 | 35 | 44 | 3.5 | 5.2 | 0.00 | 0.00 | 0.00 | 58 | 1017.4 |
| 20260505041532 | 39 | 44 | 7.0 | 8.7 | 0.00 | 0.00 | 0.00 | 53 | 1017.5 |
| 20260505040030 | 39 | 42 | 4.3 | 6.1 | 0.00 | 0.00 | 0.00 | 52 | 1017.4 |
| 20260505034538 | 40 | 48 | 6.1 | 10.4 | 0.00 | 0.00 | 0.00 | 51 | 1017.4 |
| 20260505033031 | 41 | 40 | 7.0 | 12.2 | 0.00 | 0.00 | 0.00 | 50 | 1016.9 |
| 20260505031531 | 41 | 33 | 9.6 | 14.8 | 0.00 | 0.00 | 0.00 | 48 | 1016.8 |
| 20260505030043 | 42 | 36 | 9.6 | 14.8 | 0.00 | 0.00 | 0.00 | 47 | 1016.5 |
| 20260505024529 | 43 | 35 | 10.4 | 13.9 | 0.00 | 0.00 | 0.00 | 45 | 1016.6 |
| 20260505023039 | 45 | 33 | 12.2 | 18.2 | 0.00 | 0.00 | 0.00 | 43 | 1016.3 |
| 20260505021531 | 46 | 42 | 16.5 | 20.9 | 0.00 | 0.00 | 0.00 | 41 | 1016.1 |
| 20260505020034 | 47 | 30 | 16.5 | 22.6 | 0.00 | 0.00 | 0.00 | 38 | 1015.9 |
| 20260505014537 | 49 | 34 | 15.6 | 22.6 | 0.00 | 0.00 | 0.00 | 35 | 1015.7 |
| 20260505013033 | 50 | 13 | 15.6 | 24.3 | 0.00 | 0.00 | 0.00 | 32 | 1015.5 |
| 20260505011530 | 51 | 31 | 17.4 | 26.1 | 0.00 | 0.00 | 0.00 | 29 | 1015.3 |
| 20260505010030 | 52 | 360 | 16.5 | 26.9 | 0.00 | 0.00 | 0.00 | 26 | 1015.3 |
| 20260505004554 | 52 | 9 | 18.2 | 25.2 | 0.00 | 0.00 | 0.00 | 26 | 1015.4 |
| 20260505003030 | 53 | 30 | 17.4 | 28.7 | 0.00 | 0.00 | 0.00 | 25 | 1015.1 |
| 20260505001536 | 53 | 344 | 20.9 | 29.5 | 0.00 | 0.00 | 0.00 | 23 | 1015.3 |
| 20260505000036 | 53 | 355 | 22.6 | 29.5 | 0.00 | 0.00 | 0.00 | 23 | 1015.2 |
| 20260504234528 | 53 | 355 | 22.6 | 31.3 | 0.00 | 0.00 | 0.00 | 24 | 1015.4 |
| 20260504233028 | 52 | 24 | 21.7 | 29.5 | 0.00 | 0.00 | 0.00 | 25 | 1015.2 |
| 20260504231530 | 53 | 5 | 26.1 | 33.0 | 0.00 | 0.00 | 0.00 | 25 | 1015.1 |
| 20260504230032 | 53 | 351 | 24.3 | 35.6 | 0.00 | 0.00 | 0.00 | 25 | 1015.1 |
| 20260504224534 | 53 | 9 | 18.2 | 37.4 | 0.00 | 0.00 | 0.00 | 26 | 1015.1 |
| 20260504223030 | 53 | 343 | 25.2 | 33.0 | 0.00 | 0.00 | 0.00 | 27 | 1015.0 |
| 20260504221538 | 53 | 5 | 20.0 | 31.3 | 0.00 | 0.00 | 0.00 | 30 | 1015.1 |
| 20260504220028 | 53 | 360 | 23.5 | 32.2 | 0.00 | 0.00 | 0.00 | 29 | 1015.0 |
| 20260504214531 | 53 | 336 | 20.9 | 31.3 | 0.00 | 0.00 | 0.00 | 30 | 1015.1 |
| 20260504213039 | 52 | 5 | 20.0 | 32.2 | 0.00 | 0.00 | 0.00 | 32 | 1015.2 |
| 20260504211535 | 51 | 343 | 20.9 | 27.8 | 0.00 | 0.00 | 0.00 | 34 | 1015.5 |
| 20260504210031 | 52 | 9 | 18.2 | 31.3 | 0.00 | 0.00 | 0.00 | 33 | 1015.5 |
| 20260504204533 | 51 | 343 | 20.9 | 33.0 | 0.00 | 0.00 | 0.00 | 33 | 1015.7 |
| 20260504203033 | 51 | 352 | 16.5 | 27.8 | 0.00 | 0.00 | 0.00 | 33 | 1015.6 |
| 20260504201530 | 50 | 5 | 16.5 | 31.3 | 0.00 | 0.00 | 0.00 | 35 | 1015.4 |
| 20260504200032 | 51 | 347 | 20.0 | 30.4 | 0.00 | 0.00 | 0.00 | 35 | 1015.4 |
| 20260504194529 | 52 | 20 | 22.6 | 31.3 | 0.00 | 0.00 | 0.00 | 34 | 1015.4 |
| 20260504193032 | 54 | 349 | 17.4 | 29.5 | 0.00 | 0.00 | 0.00 | 33 | 1015.3 |
| 20260504191546 | 51 | 355 | 20.0 | 33.9 | 0.00 | 0.00 | 0.00 | 38 | 1015.3 |
| 20260504190030 | 52 | 355 | 20.0 | 29.5 | 0.00 | 0.00 | 0.00 | 39 | 1015.3 |
| 20260504184540 | 53 | 350 | 19.1 | 33.0 | 0.00 | 0.00 | 0.00 | 39 | 1015.3 |
| 20260504183032 | 52 | 355 | 24.3 | 32.2 | 0.00 | 0.00 | 0.00 | 39 | 1015.3 |
| 20260504181533 | 51 | 343 | 18.2 | 28.7 | 0.00 | 0.00 | 0.00 | 39 | 1015.3 |
| 20260504180035 | 52 | 350 | 16.5 | 27.8 | 0.00 | 0.00 | 0.00 | 39 | 1015.5 |
| 20260504174530 | 52 | 355 | 20.9 | 28.7 | 0.00 | 0.00 | 0.00 | 39 | 1015.5 |
| 20260504173028 | 51 | 313 | 18.2 | 26.9 | 0.00 | 0.00 | 0.00 | 39 | 1015.5 |
| 20260504171530 | 51 | 348 | 16.5 | 24.3 | 0.00 | 0.00 | 0.00 | 42 | 1015.8 |